TimeEST,TemperatureF,Dew PointF,Humidity,Sea Level PressureIn,VisibilityMPH,Wind Direction,Wind SpeedMPH,Gust SpeedMPH,PrecipitationIn,Events,Conditions,WindDirDegrees,DateUTC
12:13 AM,28.4,24.8,86,29.60,0.8,West,23.0,33.4,0.00,Snow,Light Snow,260,2012-12-21 05:13:00
12:53 AM,28.0,24.1,85,29.63,0.5,West,16.1,31.1,0.00,Fog-Snow,Snow,260,2012-12-21 05:53:00
1:45 AM,26.6,23.0,86,29.65,1.5,West,18.4,27.6,0.02,Snow,Light Snow,280,2012-12-21 06:45:00
1:53 AM,27.0,21.9,81,29.67,2.0,West,23.0,34.5,0.02,Snow,Light Snow,270,2012-12-21 06:53:00
2:00 AM,26.6,21.2,80,29.66,1.8,West,20.7,36.8,0.00,Snow,Light Snow,270,2012-12-21 07:00:00
2:28 AM,26.6,21.2,80,29.67,2.0,West,20.7,32.2,0.00,Snow,Light Snow,280,2012-12-21 07:28:00
2:45 AM,26.6,21.2,80,29.68,1.5,West,20.7,28.8,0.00,Snow,Light Snow,270,2012-12-21 07:45:00
2:53 AM,26.1,21.9,84,29.70,1.0,West,23.0,33.4,0.00,Snow,Light Snow,270,2012-12-21 07:53:00
3:06 AM,26.6,21.2,80,29.69,0.8,West,18.4,33.4,0.00,Snow,Light Snow,270,2012-12-21 08:06:00
3:18 AM,26.6,21.2,80,29.70,0.8,West,19.6,29.9,0.00,Snow,Light Snow,270,2012-12-21 08:18:00
3:48 AM,26.6,21.2,80,29.71,1.0,West,17.3,27.6,0.00,Snow,Light Snow,270,2012-12-21 08:48:00
3:53 AM,26.1,21.9,84,29.73,1.0,West,17.3,27.6,0.00,Snow,Light Snow,270,2012-12-21 08:53:00
4:12 AM,26.6,21.2,80,29.72,0.8,West,16.1,31.1,0.00,Snow,Light Snow,280,2012-12-21 09:12:00
4:29 AM,26.6,21.2,80,29.73,1.0,West,20.7,31.1,0.00,Snow,Light Snow,270,2012-12-21 09:29:00
4:46 AM,26.6,21.2,80,29.73,1.5,West,20.7,28.8,0.00,Snow,Light Snow,280,2012-12-21 09:46:00
4:53 AM,26.1,21.0,81,29.75,1.5,West,17.3,28.8,0.00,Snow,Light Snow,270,2012-12-21 09:53:00
5:36 AM,24.8,21.2,86,29.74,2.5,West,16.1,23.0,0.00,Snow,Light Snow,280,2012-12-21 10:36:00
5:43 AM,24.8,21.2,86,29.75,3.0,West,16.1,25.3,0.00,Snow,Light Snow,280,2012-12-21 10:43:00
5:53 AM,25.0,19.9,81,29.77,2.0,WNW,17.3,34.5,0.00,Snow,Light Snow,290,2012-12-21 10:53:00
6:08 AM,24.8,19.4,80,29.76,3.0,WNW,16.1,31.1,0.00,Snow,Light Snow,290,2012-12-21 11:08:00
6:23 AM,24.8,19.4,80,29.76,2.5,West,16.1,25.3,0.00,Snow,Light Snow,280,2012-12-21 11:23:00
6:36 AM,24.8,19.4,80,29.77,1.8,West,15.0,26.5,0.00,Snow,Light Snow,280,2012-12-21 11:36:00
6:48 AM,25.0,19.9,81,29.80,2.5,West,16.1,27.6,0.00,Snow,Light Snow,280,2012-12-21 11:48:00
7:53 AM,24.1,19.0,81,29.84,2.0,West,18.4,27.6,0.00,Snow,Light Snow,280,2012-12-21 12:53:00
8:06 AM,24.8,19.4,80,29.82,1.8,West,20.7,31.1,0.00,Snow,Light Snow,280,2012-12-21 13:06:00
8:53 AM,23.0,17.1,78,29.88,2.0,WNW,15.0,24.2,0.00,Snow,Light Snow,290,2012-12-21 13:53:00
9:02 AM,23.0,17.6,80,29.86,4.0,WNW,20.7,31.1,0.00,Snow,Light Snow,290,2012-12-21 14:02:00
9:53 AM,23.0,16.0,74,29.91,9.0,WNW,13.8,25.3,0.00,,Overcast,300,2012-12-21 14:53:00
10:53 AM,21.9,15.1,75,29.96,4.0,WNW,20.7,28.8,0.00,,Haze,290,2012-12-21 15:53:00
11:53 AM,21.9,15.1,75,29.97,9.0,WNW,16.1,21.9,0.00,,Overcast,290,2012-12-21 16:53:00
12:53 PM,23.0,16.0,74,29.97,9.0,WNW,12.7,24.2,N/A,,Overcast,300,2012-12-21 17:53:00
1:53 PM,27.0,18.0,69,29.98,10.0,WNW,15.0,21.9,N/A,,Overcast,290,2012-12-21 18:53:00
2:53 PM,28.9,19.0,67,29.99,9.0,West,18.4,27.6,N/A,,Mostly Cloudy,280,2012-12-21 19:53:00
3:00 PM,28.4,19.4,69,29.97,10.0,WNW,15.0,27.6,N/A,,Scattered Clouds,290,2012-12-21 20:00:00
3:53 PM,28.9,18.0,64,30.02,10.0,WNW,12.7,21.9,N/A,,Partly Cloudy,290,2012-12-21 20:53:00
4:53 PM,28.0,17.1,63,30.05,10.0,WNW,12.7,24.2,N/A,,Clear,300,2012-12-21 21:53:00
5:53 PM,27.0,16.0,63,30.09,10.0,WNW,11.5,-,N/A,,Clear,300,2012-12-21 22:53:00
6:53 PM,26.1,17.1,69,30.12,10.0,WNW,10.4,18.4,N/A,,Clear,300,2012-12-21 23:53:00
7:53 PM,25.0,17.1,72,30.15,10.0,WNW,6.9,-,N/A,,Partly Cloudy,300,2012-12-22 00:53:00
8:12 PM,24.8,17.6,74,30.12,10.0,NW,5.8,-,N/A,,Mostly Cloudy,310,2012-12-22 01:12:00
8:53 PM,25.0,17.1,72,30.17,10.0,WNW,8.1,-,N/A,,Overcast,300,2012-12-22 01:53:00
9:53 PM,25.0,17.1,72,30.18,10.0,NW,6.9,-,N/A,,Overcast,310,2012-12-22 02:53:00
10:53 PM,24.1,17.1,75,30.20,10.0,NW,4.6,-,N/A,,Overcast,320,2012-12-22 03:53:00
11:53 PM,23.0,15.1,72,30.21,10.0,WNW,8.1,-,N/A,,Mostly Cloudy,300,2012-12-22 04:53:00